TimeEDT,TemperatureF,Dew PointF,Humidity,Sea Level PressureIn,VisibilityMPH,Wind Direction,Wind SpeedMPH,Gust SpeedMPH,PrecipitationIn,Events,Conditions,WindDirDegrees,DateUTC
12:15 AM,46.4,42.8,87,29.99,10.0,NW,6.9,-,N/A,,Overcast,320,2012-10-08 04:15:00
12:35 AM,46.4,42.8,87,29.99,9.0,NW,5.8,-,N/A,,Overcast,320,2012-10-08 04:35:00
12:55 AM,46.4,42.8,87,30.00,9.0,NNW,5.8,-,N/A,,Overcast,330,2012-10-08 04:55:00
1:15 AM,44.6,42.8,93,30.01,9.0,North,4.6,-,N/A,,Overcast,360,2012-10-08 05:15:00
1:35 AM,44.6,42.8,93,30.01,10.0,North,5.8,-,N/A,,Overcast,10,2012-10-08 05:35:00
1:55 AM,44.6,42.8,93,30.02,10.0,North,3.5,-,N/A,,Overcast,360,2012-10-08 05:55:00
2:15 AM,44.6,42.8,93,30.03,10.0,NW,3.5,-,N/A,,Overcast,320,2012-10-08 06:15:00
2:35 AM,44.6,42.8,93,30.02,10.0,NNW,4.6,-,N/A,,Mostly Cloudy,330,2012-10-08 06:35:00
2:55 AM,44.6,42.8,93,30.03,10.0,NNW,3.5,-,N/A,,Overcast,340,2012-10-08 06:55:00
3:15 AM,44.6,42.8,93,30.03,10.0,NNW,6.9,-,N/A,,Overcast,340,2012-10-08 07:15:00
3:35 AM,44.6,41.0,87,30.03,10.0,NNW,5.8,-,N/A,,Mostly Cloudy,330,2012-10-08 07:35:00
3:55 AM,44.6,41.0,87,30.03,10.0,North,5.8,-,N/A,,Mostly Cloudy,360,2012-10-08 07:55:00
4:15 AM,42.8,39.2,87,30.03,10.0,North,5.8,-,N/A,,Partly Cloudy,360,2012-10-08 08:15:00
4:35 AM,41.0,37.4,87,30.03,10.0,North,4.6,-,N/A,,Clear,360,2012-10-08 08:35:00
4:55 AM,41.0,37.4,87,30.04,10.0,North,3.5,-,N/A,,Clear,360,2012-10-08 08:55:00
5:15 AM,39.2,37.4,93,30.03,10.0,North,5.8,-,N/A,,Clear,10,2012-10-08 09:15:00
5:35 AM,39.2,37.4,93,30.04,10.0,NNW,5.8,-,N/A,,Clear,340,2012-10-08 09:35:00
5:55 AM,37.4,35.6,93,30.05,10.0,Calm,Calm,-,N/A,,Clear,0,2012-10-08 09:55:00
6:15 AM,37.4,35.6,93,30.05,1.2,SW,3.5,-,N/A,,Clear,230,2012-10-08 10:15:00
6:35 AM,37.4,35.6,93,30.07,5.0,Calm,Calm,-,N/A,,Clear,0,2012-10-08 10:35:00
6:55 AM,35.6,33.8,93,30.08,10.0,Calm,Calm,-,N/A,,Clear,0,2012-10-08 10:55:00
7:15 AM,35.6,33.8,93,30.10,3.0,SW,3.5,-,N/A,,Clear,220,2012-10-08 11:15:00
7:35 AM,37.4,35.6,93,30.11,5.0,WNW,3.5,-,N/A,,Clear,300,2012-10-08 11:35:00
7:55 AM,39.2,37.4,93,30.12,10.0,West,3.5,-,N/A,,Clear,270,2012-10-08 11:55:00
8:15 AM,42.8,37.4,81,30.13,10.0,West,3.5,-,N/A,,Clear,280,2012-10-08 12:15:00
8:35 AM,44.6,39.2,81,30.13,10.0,Calm,Calm,-,N/A,,Clear,0,2012-10-08 12:35:00
8:55 AM,44.6,37.4,76,30.13,10.0,WNW,4.6,-,N/A,,Clear,300,2012-10-08 12:55:00
9:15 AM,46.4,37.4,71,30.14,10.0,West,5.8,-,N/A,,Clear,280,2012-10-08 13:15:00
9:35 AM,46.4,37.4,71,30.15,10.0,NW,8.1,-,N/A,,Clear,310,2012-10-08 13:35:00
9:55 AM,46.4,35.6,66,30.16,10.0,WNW,5.8,-,N/A,,Clear,290,2012-10-08 13:55:00
10:15 AM,48.2,35.6,62,30.15,10.0,West,8.1,-,N/A,,Clear,270,2012-10-08 14:15:00
10:35 AM,48.2,37.4,66,30.15,10.0,WNW,8.1,-,N/A,,Clear,300,2012-10-08 14:35:00
10:55 AM,48.2,35.6,62,30.15,10.0,NW,8.1,-,N/A,,Partly Cloudy,320,2012-10-08 14:55:00
11:15 AM,50.0,35.6,58,30.16,10.0,NW,6.9,-,N/A,,Partly Cloudy,320,2012-10-08 15:15:00
11:35 AM,51.8,37.4,58,30.16,10.0,West,5.8,-,N/A,,Scattered Clouds,270,2012-10-08 15:35:00
11:55 AM,50.0,35.6,58,30.17,10.0,WNW,6.9,-,N/A,,Overcast,290,2012-10-08 15:55:00
12:15 PM,50.0,35.6,58,30.17,10.0,WNW,6.9,-,N/A,,Mostly Cloudy,290,2012-10-08 16:15:00
12:35 PM,51.8,35.6,54,30.17,10.0,WNW,10.4,-,N/A,,Clear,290,2012-10-08 16:35:00
12:55 PM,51.8,35.6,54,30.18,10.0,WNW,5.8,-,N/A,,Partly Cloudy,290,2012-10-08 16:55:00
1:15 PM,51.8,33.8,50,30.17,10.0,West,9.2,-,N/A,,Mostly Cloudy,260,2012-10-08 17:15:00
1:55 PM,51.8,33.8,50,30.18,10.0,NW,4.6,-,N/A,,Mostly Cloudy,320,2012-10-08 17:55:00
2:15 PM,51.8,33.8,50,30.18,10.0,West,5.8,-,N/A,,Mostly Cloudy,280,2012-10-08 18:15:00
2:35 PM,53.6,35.6,51,30.18,10.0,WNW,9.2,-,N/A,,Mostly Cloudy,300,2012-10-08 18:35:00
2:55 PM,53.6,33.8,47,30.18,10.0,West,4.6,-,N/A,,Partly Cloudy,280,2012-10-08 18:55:00
3:15 PM,53.6,33.8,47,30.18,10.0,NW,6.9,-,N/A,,Partly Cloudy,310,2012-10-08 19:15:00
3:35 PM,53.6,35.6,51,30.19,10.0,NW,6.9,-,N/A,,Partly Cloudy,320,2012-10-08 19:35:00
3:55 PM,53.6,33.8,47,30.19,10.0,West,6.9,-,N/A,,Clear,260,2012-10-08 19:55:00
4:15 PM,53.6,33.8,47,30.20,10.0,NW,4.6,-,N/A,,Clear,310,2012-10-08 20:15:00
4:35 PM,53.6,33.8,47,30.20,10.0,WNW,3.5,-,N/A,,Clear,300,2012-10-08 20:35:00
4:55 PM,53.6,33.8,47,30.21,10.0,West,3.5,-,N/A,,Clear,270,2012-10-08 20:55:00
5:15 PM,53.6,33.8,47,30.22,10.0,Calm,Calm,-,N/A,,Clear,0,2012-10-08 21:15:00
5:35 PM,53.6,33.8,47,30.22,10.0,WNW,3.5,-,N/A,,Clear,300,2012-10-08 21:35:00
5:55 PM,48.2,35.6,62,30.23,10.0,Calm,Calm,-,N/A,,Clear,0,2012-10-08 21:55:00
6:15 PM,46.4,33.8,62,30.24,10.0,Calm,Calm,-,N/A,,Partly Cloudy,0,2012-10-08 22:15:00
6:35 PM,46.4,37.4,71,30.24,10.0,Calm,Calm,-,N/A,,Partly Cloudy,0,2012-10-08 22:35:00
6:55 PM,44.6,37.4,76,30.25,10.0,Calm,Calm,-,N/A,,Clear,0,2012-10-08 22:55:00
7:15 PM,42.8,37.4,81,30.25,10.0,Calm,Calm,-,N/A,,Clear,0,2012-10-08 23:15:00
7:35 PM,42.8,35.6,76,30.25,10.0,Calm,Calm,-,N/A,,Clear,0,2012-10-08 23:35:00
7:55 PM,42.8,35.6,76,30.26,10.0,Calm,Calm,-,N/A,,Clear,0,2012-10-08 23:55:00
8:15 PM,42.8,37.4,81,30.26,10.0,Calm,Calm,-,N/A,,Clear,0,2012-10-09 00:15:00
8:35 PM,42.8,37.4,81,30.28,10.0,Calm,Calm,-,N/A,,Clear,0,2012-10-09 00:35:00
8:55 PM,41.0,37.4,87,30.28,10.0,Calm,Calm,-,N/A,,Clear,0,2012-10-09 00:55:00
9:15 PM,39.2,35.6,87,30.28,10.0,NNW,3.5,-,N/A,,Clear,340,2012-10-09 01:15:00
9:35 PM,39.2,35.6,87,30.29,10.0,Calm,Calm,-,N/A,,Clear,0,2012-10-09 01:35:00
10:15 PM,39.2,35.6,87,30.30,10.0,Calm,Calm,-,N/A,,Clear,0,2012-10-09 02:15:00
10:35 PM,39.2,35.6,87,30.31,10.0,Calm,Calm,-,N/A,,Clear,0,2012-10-09 02:35:00
10:55 PM,39.2,35.6,87,30.31,10.0,Calm,Calm,-,N/A,,Clear,0,2012-10-09 02:55:00
11:15 PM,39.2,35.6,87,30.31,10.0,Calm,Calm,-,N/A,,Clear,0,2012-10-09 03:15:00
11:55 PM,37.4,35.6,93,30.31,10.0,North,3.5,-,N/A,,Clear,360,2012-10-09 03:55:00